User: anonymous   Login
Location: Mentone
(34.5413°N, 85.5351°W)
Time: 10:11:14
(UTC-05:00)
Language:

Uosat F - Orbit

View from above orbital plane
View from above orbital plane
View from above satellite
View from above satellite

Ground track
Ground track

The orbit data is extracted from the following two-line orbital elements,

1 21575U 91050B   15143.20953913  .00000149  00000-0  61034-4 0  9993
2 21575 098.7377 130.8120 0008016 037.6512 026.0487 14.40628868252437
Epoch (UTC): 23 May 2015 05:01:44
Eccentricity: 0.0008016
inclination: 98.7377°
perigee height: 751 km
apogee height: 762 km
right ascension of ascending node: 130.8120°
argument of perigee: 37.6512°
revolutions per day: 14.40628868
mean anomaly at epoch: 26.0487°
orbit number at epoch: 25243

The dashed part of the orbit path shows where the satellite is in the earth's shadow,  

DLR